Showing default

CBERS 4A, 44883

Orbit data source: Space-Track

CBERS 4A, 44883 is a CN and BR payload satellite in SSO that was launched on Fri, 20 Dec 2019 UTC via a CHANG ZHENG 4B launch vehicle from the Taiyaun Space Center, China (TSC). Payload-class satellites include a variety of spacecraft equipped with specific instruments for various scientific and technological missions. These include communications satellites like Starlink; space stations such as the ISS; scientific satellites like the Hubble; Earth observation satellites from companies like Planet Labs, Umbra, and HawkEye 360; GPS; miniature CubeSats for education and research; and military/defense satellites.

Loading next visibility...
Identifier
44883, 2019-093E
Orbit
SSO
Country
Flag of UnknownUnknown / CHBZ
Related business
Manufacturer
CAST/INPE
Mission
Operational Civil Imaging
Bus & Motor
ZY, AOCS 20N
Mass
1,980 kg wet, ~1,900 kg dry
Launch date (UTC)
2019-12-20 (6 years ago)
Launch vehicle
CHANG ZHENG 4B
Launch site
Taiyaun Space Center, China (TSC)
Object type
Payload
Rocket body
Debris
Shape & HBR
Box + 1 Pan, Unknown HBR
Radar Cross Section
22.196 m², Large (>1 m²)

Expand to show TLE details & history
Last TLE update: 13 hours ago

TLE from 13 hours ago
0 CBERS 4A
1 44883U 19093E   25261.32868043  .00001038  00000-0  13859-3 0  9990
2 44883  97.7849 331.8107 0001619  23.7466 336.3822 14.81588279310825
Epoch: 2025-09-18T07:53Z
TLE epoch observation values (Epoch: 2025-09-18T07:53:17.989Z)
Latitude
0.00004°
Longitude
-144.00611°
Altitude
626.303 km
Speed
7.546 km/s
True Right ascension
22h 07m 14s
True Declination
0° 00' 00"
Sunlit
Object was in full shadow at epoch
Visualization orbit readout
Latitude
Unknown
Longitude
Unknown
Altitude
Unknown
Speed
Unknown
Apparent Right ascension
Unknown
Apparent Declination
Unknown
Sunlit
N/A
Visualization observer readout
Local Sidereal Time
13:43:11
Azimuth
Unknown
Elevation
Unknown
Doppler factor
Unknown
Orbital elements
Apogee altitude
622.482 km
Perigee altitude
620.216 km
Semi-major axis
6,999.486 km
Eccentricity
0.00016
Inclination
97.7849°
RAAN
331.8107°
Arg. of periapsis
23.7466°
True anomaly
336.37477°
Mean anomaly
336.3822°
Eccentric anomaly
336.37848°
Mean motion
3.70633 °/min
Orbital period
97.13 mins
BSTAR
0.00013859
Loading maneuver chart data...
Computing Atmospheric mass density...
Loading historical data...
Loading historical data...
Loading historical data...
Loading historical data...
Loading historical data...
Loading historical data...
Loading historical data...

Documentation

Showing up to 5 results
|